Temp
7 7 7 6 6 6 6 6 5 5 5 4 3 2 2 2 2 2 1 1 0 -0 -1 -0 1 1 1 1 0 -0 -1 -0 -0 -1 -1 -0 -0 -1
6 6 6 6 6 5 5 5 5 5 5 3 3 2 2 2 2 1 1 0 -0 -1 -2 -3 -4 -3 -2 -2 -3 -2 -2 -3 -4 -3 -3 -3 -3 -2
6 5 5 5 5 5 5 4 4 4 4 4 3 3 2 1 1 0 -0 -1 -1 -2 -3 -4 -4 -4 -4 -4 -4 -4 -4 -4 -4 -4 -4 -4 -4 -4
5 5 4 5 5 4 4 4 3 2 2 2 2 2 1 -0 -1 -1 -1 -2 -2 -2 -4 -4 -4 -4 -5 -5 -5 -5 -5 -5 -5 -5 -5 -5 -5 -4
4 4 4 4 4 3 3 2 2 1 0 -1 -1 -1 -2 -2 -3 -3 -3 -3 -3 -4 -4 -4 -4 -5 -5 -5 -5 -5 -5 -5 -5 -5 -5 -5 -5 -5
4 4 3 3 2 2 2 1 0 -0 -1 -2 -2 -3 -3 -3 -4 -4 -4 -4 -4 -5 -4 -4 -5 -5 -4 -4 -5 -5 -6 -6 -5 -5 -5 -5 -5 -5
3 3 3 2 2 1 1 -0 -1 -1 -2 -2 -3 -3 -4 -4 -4 -5 -5 -5 -5 -5 -5 -4 -5 -4 -4 -5 -6 -6 -6 -6 -6 -6 -6 -6 -6 -6
3 3 2 2 1 1 -0 -1 -2 -2 -3 -3 -4 -4 -4 -5 -5 -5 -6 -6 -6 -5 -6 -4 -6 -6 -6 -6 -6 -6 -6 -6 -7 -7 -7 -7 -6 -6
2 2 1 1 0 -1 -1 -2 -3 -4 -5 -5 -5 -5 -5 -5 -6 -6 -6 -6 -6 -6 -6 -6 -6 -6 -6 -6 -6 -6 -6 -6 -7 -7 -7 -7 -7 -6
1 1 -0 -1 -1 -2 -3 -3 -4 -4 -5 -6 -6 -6 -6 -6 -6 -6 -6 -6 -6 -6 -7 -7 -7 -6 -6 -6 -6 -6 -7 -8 -8 -8 -8 -7 -7 -7
0 -1 -1 -2 -3 -3 -3 -4 -4 -5 -5 -6 -6 -6 -6 -7 -7 -7 -7 -7 -7 -7 -8 -8 -7 -8 -7 -7 -7 -8 -8 -7 -7 -8 -7 -8 -8 -7
-1 -2 -2 -3 -4 -4 -4 -5 -5 -5 -5 -6 -6 -6 -7 -7 -7 -7 -8 -8 -8 -8 -9 -9 -9 -9 -9 -8 -9 -9 -8 -7 -7 -7 -7 -7 -8 -8
-3 -4 -4 -5 -5 -5 -5 -5 -6 -7 -7 -6 -6 -7 -7 -7 -8 -8 -8 -9 -9 -9 -9 -9 -9 -10 -10 -10 -9 -9 -9 -8 -8 -7 -8 -8 -8 -8
-4 -5 -5 -6 -5 -5 -5 -7 -7 -8 -7 -7 -7 -7 -8 -8 -9 -9 -9 -9 -9 -10 -10 -10 -10 -10 -10 -10 -10 -9 -8 -8 -9 -8 -8 -8 -7 -7
-5 -5 -6 -6 -6 -6 -7 -7 -7 -7 -8 -8 -8 -8 -9 -9 -9 -9 -9 -9 -9 -9 -9 -9 -10 -10 -10 -10 -10 -9 -9 -9 -9 -9 -8 -9 -8 -8
-5 -6 -6 -8 -8 -8 -8 -8 -8 -8 -8 -9 -9 -9 -10 -11 -11 -11 -11 -10 -10 -9 -8 -9 -10 -10 -10 -10 -10 -9 -9 -10 -9 -9 -9 -9 -8 -8
-6 -7 -7 -7 -7 -7 -8 -8 -8 -9 -9 -10 -11 -11 -11 -11 -11 -11 -11 -11 -11 -10 -10 -8 -9 -10 -10 -10 -9 -9 -9 -10 -10 -10 -9 -9 -8 -8
-6 -7 -7 -8 -8 -8 -8 -8 -8 -10 -11 -11 -11 -10 -11 -11 -11 -10 -11 -11 -11 -10 -10 -10 -10 -10 -10 -10 -10 -10 -10 -10 -10 -9 -9 -9 -9 -8
-7 -7 -7 -8 -8 -9 -9 -10 -11 -11 -11 -10 -11 -11 -11 -11 -11 -11 -11 -11 -11 -10 -10 -10 -10 -11 -11 -11 -10 -10 -10 -10 -10 -9 -9 -9 -9 -8
-7 -7 -8 -9 -8 -9 -10 -11 -10 -10 -10 -11 -11 -11 -11 -12 -12 -11 -11 -11 -11 -10 -10 -10 -10 -10 -11 -10 -10 -10 -10 -10 -10 -10 -9 -9 -8 -8
-8 -9 -9 -9 -10 -10 -10 -11 -11 -11 -12 -12 -11 -12 -12 -12 -11 -11 -11 -11 -11 -10 -10 -10 -10 -10 -11 -10 -10 -10 -9 -10 -10 -10 -10 -10 -9 -8
-9 -8 -9 -10 -10 -10 -10 -11 -11 -11 -12 -12 -12 -11 -12 -12 -12 -11 -11 -11 -10 -10 -10 -10 -10 -10 -11 -11 -10 -10 -10 -10 -10 -10 -10 -10 -10 -9
-9 -9 -10 -10 -10 -10 -11 -12 -11 -11 -11 -11 -11 -12 -12 -12 -12 -11 -11 -10 -10 -11 -11 -11 -10 -10 -11 -11 -10 -10 -10 -10 -10 -10 -9 -10 -10 -9
Height
1548 1549 1551 1552 1553 1554 1555 1556 1557 1557 1558 1559 1558 1556 1554 1552 1549 1547 1545 1543 1541 1538 1536 1534 1532 1528 1525 1523 1519 1516 1512 1510 1507 1504 1501 1498 1495 1492
1545 1547 1549 1551 1552 1553 1553 1554 1554 1555 1556 1555 1554 1552 1550 1548 1546 1544 1542 1539 1537 1534 1533 1529 1527 1524 1521 1518 1515 1511 1508 1505 1502 1499 1496 1493 1489 1486
1543 1545 1547 1550 1550 1550 1551 1552 1552 1552 1552 1552 1549 1548 1546 1544 1541 1540 1538 1535 1532 1531 1529 1525 1524 1521 1518 1514 1512 1508 1504 1501 1497 1494 1491 1487 1483 1480
1541 1542 1545 1546 1548 1548 1548 1549 1548 1548 1547 1547 1546 1543 1542 1540 1537 1534 1533 1532 1531 1528 1524 1523 1520 1517 1514 1511 1507 1504 1500 1496 1493 1489 1485 1482 1478 1475
1539 1541 1544 1544 1544 1546 1546 1545 1545 1544 1543 1542 1540 1540 1538 1537 1533 1531 1528 1527 1526 1525 1521 1518 1515 1512 1509 1506 1502 1500 1495 1492 1489 1485 1481 1477 1473 1469
1535 1538 1540 1542 1543 1543 1542 1542 1541 1540 1540 1539 1537 1536 1535 1533 1529 1527 1524 1526 1521 1520 1517 1513 1510 1508 1504 1501 1498 1494 1490 1488 1484 1480 1476 1471 1467 1463
1531 1533 1536 1539 1539 1540 1539 1539 1538 1537 1536 1536 1534 1532 1532 1529 1525 1524 1522 1520 1517 1515 1511 1507 1504 1501 1498 1495 1492 1489 1486 1482 1478 1474 1470 1466 1461 1457
1527 1527 1531 1535 1536 1535 1535 1534 1534 1532 1533 1530 1531 1530 1527 1524 1521 1521 1519 1516 1511 1510 1505 1501 1500 1496 1494 1490 1486 1483 1479 1475 1472 1468 1463 1459 1454 1450
1523 1524 1527 1529 1530 1530 1530 1530 1529 1528 1529 1528 1526 1527 1524 1520 1519 1518 1516 1512 1508 1505 1502 1496 1495 1491 1488 1484 1481 1477 1473 1469 1466 1462 1457 1453 1448 1443
1521 1522 1524 1525 1526 1528 1528 1527 1525 1525 1524 1527 1524 1523 1521 1518 1516 1515 1511 1507 1504 1502 1499 1492 1490 1485 1481 1477 1474 1471 1468 1464 1460 1455 1450 1446 1441 1436
1518 1520 1520 1521 1523 1525 1525 1522 1522 1521 1521 1522 1520 1519 1517 1515 1513 1510 1507 1503 1498 1495 1495 1490 1486 1479 1473 1468 1466 1464 1461 1457 1453 1448 1442 1437 1433 1428
1513 1516 1516 1521 1522 1520 1518 1519 1519 1518 1516 1518 1516 1514 1512 1510 1508 1506 1503 1500 1497 1491 1490 1488 1482 1479 1466 1460 1460 1456 1453 1450 1445 1440 1435 1430 1425 1420
1508 1512 1514 1518 1519 1514 1514 1517 1516 1514 1513 1512 1510 1508 1507 1505 1503 1501 1499 1496 1493 1488 1487 1484 1477 1474 1472 1459 1453 1451 1447 1441 1437 1432 1428 1424 1419 1416
1506 1510 1512 1514 1514 1511 1512 1513 1513 1511 1509 1507 1505 1503 1501 1499 1497 1495 1493 1491 1488 1484 1480 1479 1473 1470 1465 1458 1450 1444 1441 1437 1432 1427 1423 1417 1412 1407
1505 1507 1510 1510 1508 1508 1509 1509 1508 1506 1504 1502 1500 1498 1496 1494 1491 1489 1485 1482 1479 1478 1475 1472 1469 1464 1461 1456 1447 1442 1435 1429 1428 1423 1418 1412 1407 1401
1502 1505 1506 1506 1506 1505 1505 1504 1503 1502 1500 1498 1496 1493 1491 1489 1486 1484 1480 1476 1472 1470 1469 1466 1463 1460 1455 1451 1445 1437 1434 1429 1423 1419 1413 1408 1403 1399
1501 1502 1503 1503 1502 1501 1501 1500 1499 1498 1496 1494 1492 1490 1487 1485 1482 1480 1477 1473 1469 1464 1462 1461 1458 1455 1451 1446 1439 1435 1429 1425 1421 1416 1410 1403 1398 1394
1498 1499 1499 1499 1499 1498 1497 1496 1494 1493 1491 1489 1487 1486 1483 1481 1478 1475 1473 1469 1465 1461 1458 1455 1451 1446 1441 1438 1437 1429 1426 1422 1417 1412 1408 1402 1394 1392
1494 1495 1496 1497 1497 1496 1495 1493 1492 1490 1487 1485 1483 1482 1479 1477 1474 1470 1467 1464 1461 1458 1455 1451 1447 1443 1436 1430 1429 1428 1422 1418 1412 1407 1404 1400 1394 1389
1491 1492 1494 1494 1493 1492 1491 1490 1488 1486 1484 1482 1480 1478 1475 1472 1469 1466 1463 1460 1457 1453 1449 1447 1445 1441 1435 1429 1422 1419 1419 1413 1410 1404 1400 1397 1393 1389
1490 1491 1491 1490 1489 1489 1488 1486 1484 1482 1480 1478 1476 1473 1470 1468 1465 1462 1460 1457 1454 1450 1445 1442 1439 1436 1431 1425 1419 1414 1411 1411 1408 1403 1399 1394 1390 1385
1488 1487 1488 1488 1486 1485 1484 1482 1481 1480 1477 1474 1471 1468 1465 1463 1460 1458 1456 1452 1448 1445 1440 1436 1433 1428 1424 1421 1415 1411 1407 1404 1403 1400 1397 1394 1390 1385
1486 1486 1485 1484 1483 1481 1481 1479 1477 1475 1472 1469 1466 1464 1461 1459 1457 1454 1451 1448 1444 1440 1436 1432 1426 1423 1419 1416 1412 1407 1404 1401 1397 1394 1391 1390 1387 1384
Wind_Speed
8 7 6 6 5 5 4 4 4 5 5 5 6 7 13 19 23 24 24 24 23 19 18 20 24 25 26 26 27 27 27 28 28 28 29 30 30 29
8 7 6 6 5 4 4 4 5 6 6 10 10 15 20 23 23 23 24 24 21 18 18 20 22 22 22 23 24 25 26 27 26 27 27 27 28 29
9 7 6 6 5 4 5 6 7 8 11 14 17 19 21 23 22 23 23 22 19 20 17 18 19 20 21 22 23 25 26 26 27 26 26 27 29 29
9 7 7 6 6 7 7 8 9 10 13 15 17 17 19 20 21 21 22 20 21 20 18 19 18 23 20 23 25 26 25 26 26 26 29 29 29 29
9 7 7 7 8 8 8 10 11 11 13 14 16 16 17 18 19 19 21 23 23 23 24 20 22 22 25 27 24 24 26 24 26 29 30 32 32 31
10 8 7 8 9 10 11 11 12 13 13 14 14 15 15 15 14 17 22 25 24 25 21 23 24 28 26 26 27 28 24 25 26 28 31 32 32 33
9 8 8 10 10 11 11 12 13 14 14 14 14 14 15 15 16 19 24 24 26 24 25 28 29 28 28 29 31 26 25 27 31 30 29 30 32 32
9 7 9 11 10 11 11 10 11 12 11 12 14 16 15 14 17 20 24 25 30 27 30 32 28 28 29 31 28 28 31 30 28 28 30 31 31 30
7 8 10 11 11 10 9 10 9 9 11 13 14 14 18 18 22 24 24 24 26 28 26 30 28 31 30 30 30 30 29 26 29 30 29 30 31 31
8 8 9 9 10 8 8 8 8 9 9 11 14 16 16 16 17 20 23 24 26 25 23 30 30 31 34 33 30 25 25 28 30 31 31 30 30 30
7 7 7 8 9 9 9 9 10 10 9 11 14 17 18 18 19 19 22 24 29 30 27 27 32 37 38 37 28 24 34 32 34 33 33 32 30 31
6 6 6 8 9 9 9 9 11 12 14 16 17 17 16 18 18 19 21 24 27 30 22 30 33 27 39 33 26 38 37 36 36 35 31 30 29 30
5 5 6 9 9 7 7 11 12 13 18 18 19 18 19 20 19 18 21 23 27 31 28 26 32 34 28 37 40 40 38 39 36 35 29 30 31 31
6 7 8 9 8 9 9 10 10 14 18 18 17 18 19 19 21 23 25 28 26 25 28 26 30 26 28 33 38 41 40 37 35 30 30 34 32 34
7 7 8 8 8 9 9 10 12 15 16 18 19 20 22 24 26 27 23 21 22 21 18 17 21 22 24 30 36 37 38 38 29 31 31 34 36 33
6 5 6 7 7 5 8 12 14 16 18 19 22 21 19 20 20 20 23 23 24 24 18 18 18 19 24 26 28 34 31 32 32 33 32 32 32 25
7 7 7 7 6 9 12 14 16 17 18 16 16 19 19 19 20 19 20 23 26 26 26 21 19 21 23 24 29 28 29 31 32 33 27 33 31 26
6 5 5 7 10 13 14 15 12 11 12 15 18 17 17 18 22 23 24 21 23 25 27 26 29 31 30 29 24 27 29 30 31 26 25 30 32 25
4 5 7 10 11 12 15 11 12 13 15 15 15 15 18 21 23 21 22 22 24 25 25 27 28 30 35 35 33 25 28 29 26 24 23 28 26 22
3 6 9 10 10 9 9 11 13 14 15 15 17 19 20 21 22 22 21 22 24 26 29 27 25 30 29 33 37 33 24 26 23 23 26 25 21 18
6 7 8 7 7 9 11 12 14 15 15 18 20 21 22 21 21 20 20 22 23 25 28 27 29 33 27 26 30 32 27 18 18 18 22 25 23 25
7 6 5 7 8 10 12 14 14 15 18 22 22 21 21 21 20 19 22 24 25 25 27 29 37 31 27 25 28 28 27 22 15 16 19 19 16 24
3 4 6 8 11 13 14 14 16 18 19 20 20 21 22 22 20 20 22 23 26 27 24 38 32 28 27 26 25 26 25 23 22 23 21 18 17 15
Wind_Direction
199 207 204 210 217 222 228 231 223 183 170 177 198 237 273 289 303 312 317 322 326 328 324 315 317 318 317 315 315 315 315 315 314 313 312 309 309 312
204 213 217 223 227 235 244 251 251 245 233 219 234 270 284 295 303 309 311 319 323 317 323 320 330 331 326 324 324 325 324 325 325 323 320 319 319 316
209 214 221 232 234 244 261 272 274 272 268 266 272 282 290 297 304 308 315 320 315 320 321 329 328 334 332 333 330 328 327 326 325 323 322 320 319 317
219 210 210 223 247 264 271 277 280 281 281 286 291 297 301 305 311 316 321 324 325 323 328 327 326 328 332 329 326 325 326 323 323 321 320 319 318 316
204 204 224 242 257 270 280 283 287 289 289 292 301 307 308 311 317 320 322 322 323 324 327 322 328 329 325 325 326 323 325 326 320 319 319 317 316 313
203 219 243 263 275 284 285 287 289 290 292 292 295 299 304 310 318 313 312 317 318 319 323 325 324 322 324 326 326 326 324 320 319 316 317 318 317 314
211 230 253 265 273 279 284 287 283 287 292 290 292 294 297 300 306 307 306 309 314 320 325 322 324 326 327 326 324 325 320 313 315 319 316 311 310 307
217 241 257 271 277 283 290 289 292 296 295 296 299 299 300 305 304 300 306 312 315 325 322 319 325 323 320 319 318 315 317 319 320 316 316 314 316 312
241 254 269 277 287 296 295 297 300 308 311 312 313 313 309 306 301 301 302 306 310 316 319 315 320 317 318 316 317 319 319 320 320 320 319 314 311 308
244 254 260 272 285 287 289 294 295 300 307 303 305 306 308 312 308 307 307 308 308 313 319 312 320 316 318 316 320 322 324 319 320 322 321 316 311 308
243 253 260 271 275 290 296 292 293 296 289 271 279 288 294 296 299 300 304 309 314 316 320 315 319 316 317 319 326 321 320 319 321 321 322 320 316 311
240 252 264 262 264 279 297 298 299 304 300 296 294 295 296 298 298 299 300 302 305 310 313 311 312 318 319 319 307 318 320 323 325 325 324 325 321 321
229 253 260 274 285 296 295 299 304 303 295 301 303 302 301 302 302 295 293 297 299 296 306 307 307 312 310 307 313 319 321 324 328 328 327 326 323 319
230 243 258 265 290 298 298 304 295 291 302 303 303 303 301 300 299 295 292 291 289 289 297 301 303 310 314 314 311 315 321 324 329 326 327 328 325 328
235 252 260 273 292 304 297 290 299 304 308 308 303 301 298 294 290 294 297 303 303 306 310 306 305 312 308 302 306 317 324 326 330 330 328 329 329 332
223 245 273 284 298 307 308 302 296 295 298 303 302 305 314 318 319 319 317 322 321 321 324 321 317 314 312 314 315 317 327 322 329 330 328 324 329 333
253 264 268 292 302 303 297 297 296 291 291 305 313 312 317 320 319 329 325 321 317 324 329 334 332 323 318 317 315 319 323 324 325 325 323 326 328 337
254 267 282 294 297 296 299 300 302 313 310 308 314 323 324 326 324 320 316 322 321 324 326 334 331 327 326 324 324 322 318 316 323 324 323 333 329 334
261 266 286 287 287 292 295 308 312 311 314 318 326 326 324 311 313 320 321 321 320 322 324 327 328 330 325 316 327 322 311 321 322 325 328 334 326 334
283 288 280 280 279 291 309 311 314 319 322 324 321 316 316 319 318 322 324 322 322 322 318 319 326 332 322 315 314 314 324 326 322 323 326 324 330 335
265 268 275 287 302 308 313 317 318 319 319 317 319 318 318 317 316 318 319 319 317 316 317 320 325 327 316 312 313 319 323 330 322 316 322 319 322 327
253 265 286 304 312 320 318 319 323 321 314 313 315 317 317 315 314 313 317 318 320 318 316 320 322 323 322 317 312 316 324 330 326 317 316 317 307 311
270 291 308 316 320 319 313 313 309 311 314 318 321 321 322 319 317 313 319 325 322 319 316 317 319 325 323 320 316 314 314 319 322 321 314 319 304 293